| time (UTC) | temp F | wind direction | speed knots | gust knots | rain 1hr in | rain 24hr in | rain mn in | humidity % | barometer mb |
| 20260506004455 | 81 | 0 | 1.7 | 4.3 | 0.00 | 0.00 | 0.00 | 82 | 992.3 |
| 20260506003954 | 81 | 0 | 1.7 | 5.2 | 0.00 | 0.00 | 0.00 | 82 | 992.3 |
| 20260506003454 | 82 | 0 | 1.7 | 5.2 | 0.00 | 0.00 | 0.00 | 82 | 992.2 |
| 20260506002953 | 82 | 0 | 1.7 | 4.3 | 0.00 | 0.00 | 0.00 | 82 | 992.3 |
| 20260506002452 | 82 | 0 | 1.7 | 3.5 | 0.00 | 0.00 | 0.00 | 82 | 992.3 |
| 20260506001951 | 82 | 0 | 1.7 | 8.7 | 0.00 | 0.00 | 0.00 | 82 | 992.3 |
| 20260506001451 | 82 | 0 | 2.6 | 8.7 | 0.00 | 0.00 | 0.00 | 81 | 992.3 |
| 20260506001217 | 82 | 0 | 2.6 | 9.6 | 0.00 | 0.00 | 0.00 | 81 | 992.3 |
| 20260506000451 | 82 | 0 | 3.5 | 9.6 | 0.00 | 0.00 | 0.00 | 81 | 992.4 |
| 20260505235949 | 82 | 0 | 3.5 | 11.3 | 0.00 | 0.00 | 0.00 | 81 | 992.3 |
| 20260505235931 | 82 | 0 | 2.6 | 11.3 | 0.00 | 0.00 | 0.00 | 81 | 992.1 |
| 20260505234945 | 82 | 0 | 1.7 | 4.3 | 0.00 | 0.00 | 0.00 | 81 | 992.1 |
| 20260505234445 | 83 | 0 | 1.7 | 5.2 | 0.00 | 0.00 | 0.00 | 81 | 992.2 |
| 20260505233945 | 83 | 0 | 1.7 | 7.0 | 0.00 | 0.00 | 0.00 | 81 | 992.3 |
| 20260505233700 | 83 | 0 | 2.6 | 9.6 | 0.00 | 0.00 | 0.00 | 80 | 992.2 |
| 20260505232939 | 83 | 0 | 2.6 | 9.6 | 0.00 | 0.00 | 0.00 | 80 | 992.1 |
| 20260505232439 | 83 | 0 | 1.7 | 7.0 | 0.00 | 0.00 | 0.00 | 81 | 992.0 |
| 20260505231938 | 83 | 0 | 1.7 | 5.2 | 0.00 | 0.00 | 0.00 | 81 | 992.0 |
| 20260505231437 | 83 | 0 | 1.7 | 5.2 | 0.00 | 0.00 | 0.00 | 81 | 991.9 |
| 20260505231424 | 83 | 0 | 1.7 | 5.2 | 0.00 | 0.00 | 0.00 | 80 | 992.0 |
| 20260505230436 | 83 | 0 | 1.7 | 5.2 | 0.00 | 0.00 | 0.00 | 80 | 992.1 |
| 20260505225937 | 83 | 0 | 2.6 | 8.7 | 0.00 | 0.00 | 0.00 | 80 | 992.2 |
| 20260505225435 | 83 | 0 | 2.6 | 8.7 | 0.00 | 0.00 | 0.00 | 80 | 992.3 |
| 20260505224935 | 84 | 0 | 1.7 | 8.7 | 0.00 | 0.00 | 0.00 | 80 | 992.1 |
| 20260505224435 | 84 | 0 | 1.7 | 9.6 | 0.00 | 0.00 | 0.00 | 79 | 991.9 |
| 20260505223933 | 84 | 0 | 1.7 | 9.6 | 0.00 | 0.00 | 0.00 | 79 | 992.1 |
| 20260505223432 | 84 | 0 | 2.6 | 9.6 | 0.00 | 0.00 | 0.00 | 78 | 992.0 |
| 20260505222930 | 84 | 0 | 3.5 | 9.6 | 0.00 | 0.00 | 0.00 | 78 | 991.9 |
| 20260505222428 | 84 | 0 | 3.5 | 10.4 | 0.00 | 0.00 | 0.00 | 78 | 992.0 |
| 20260505222147 | 85 | 0 | 1.7 | 10.4 | 0.00 | 0.00 | 0.00 | 78 | 992.0 |
| 20260505221423 | 85 | 0 | 2.6 | 8.7 | 0.00 | 0.00 | 0.00 | 79 | 992.1 |
| 20260505220924 | 85 | 0 | 2.6 | 9.6 | 0.00 | 0.00 | 0.00 | 79 | 992.1 |
| 20260505220424 | 84 | 0 | 2.6 | 9.6 | 0.00 | 0.00 | 0.00 | 78 | 992.0 |
| 20260505220143 | 85 | 0 | 2.6 | 8.7 | 0.00 | 0.00 | 0.00 | 79 | 992.0 |
| 20260505215424 | 84 | 0 | 3.5 | 8.7 | 0.00 | 0.00 | 0.00 | 78 | 992.2 |
| 20260505214921 | 84 | 151 | 2.6 | 11.3 | 0.00 | 0.00 | 0.00 | 78 | 992.3 |
| 20260505214639 | 84 | 0 | 3.5 | 11.3 | 0.00 | 0.00 | 0.00 | 78 | 992.4 |
| 20260505213918 | 84 | 0 | 3.5 | 11.3 | 0.00 | 0.00 | 0.00 | 78 | 992.5 |
| 20260505213642 | 84 | 0 | 1.7 | 9.6 | 0.00 | 0.00 | 0.00 | 79 | 992.6 |
| 20260505212919 | 84 | 0 | 1.7 | 7.0 | 0.00 | 0.00 | 0.00 | 80 | 992.6 |
| 20260505212417 | 84 | 0 | 2.6 | 7.0 | 0.00 | 0.00 | 0.00 | 79 | 992.7 |
| 20260505211917 | 84 | 0 | 2.6 | 7.0 | 0.00 | 0.00 | 0.00 | 79 | 992.8 |
| 20260505211412 | 84 | 0 | 2.6 | 9.6 | 0.00 | 0.00 | 0.00 | 79 | 992.9 |
| 20260505210912 | 84 | 0 | 3.5 | 9.6 | 0.00 | 0.00 | 0.00 | 79 | 992.9 |
| 20260505210412 | 84 | 0 | 2.6 | 10.4 | 0.00 | 0.00 | 0.00 | 79 | 992.9 |
| 20260505205913 | 84 | 0 | 1.7 | 10.4 | 0.00 | 0.00 | 0.00 | 79 | 993.0 |
| 20260505205636 | 84 | 0 | 2.6 | 9.6 | 0.00 | 0.00 | 0.00 | 79 | 993.1 |
| 20260505204912 | 84 | 0 | 2.6 | 9.6 | 0.00 | 0.00 | 0.00 | 79 | 993.1 |
| 20260505204410 | 84 | 0 | 3.5 | 11.3 | 0.00 | 0.00 | 0.00 | 79 | 993.2 |
| 20260505203908 | 84 | 0 | 2.6 | 11.3 | 0.00 | 0.00 | 0.00 | 79 | 993.2 |
| 20260505203407 | 84 | 0 | 2.6 | 9.6 | 0.00 | 0.00 | 0.00 | 79 | 993.3 |
| 20260505202908 | 84 | 0 | 3.5 | 9.6 | 0.00 | 0.00 | 0.00 | 79 | 993.5 |
| 20260505202409 | 84 | 0 | 2.6 | 8.7 | 0.00 | 0.00 | 0.00 | 79 | 993.4 |
| 20260505202127 | 84 | 0 | 3.5 | 9.6 | 0.00 | 0.00 | 0.00 | 78 | 993.4 |
| 20260505201409 | 84 | 0 | 3.5 | 9.6 | 0.00 | 0.00 | 0.00 | 78 | 993.5 |
| 20260505200908 | 84 | 0 | 3.5 | 10.4 | 0.00 | 0.00 | 0.00 | 79 | 993.5 |
| 20260505200409 | 84 | 0 | 3.5 | 13.0 | 0.00 | 0.00 | 0.00 | 79 | 993.6 |
| 20260505200128 | 84 | 0 | 3.5 | 13.9 | 0.00 | 0.00 | 0.00 | 79 | 993.6 |
| 20260505195408 | 84 | 0 | 3.5 | 14.8 | 0.00 | 0.00 | 0.00 | 78 | 993.8 |
| 20260505195129 | 84 | 268 | 3.5 | 14.8 | 0.00 | 0.00 | 0.00 | 79 | 993.7 |
| 20260505194408 | 84 | 0 | 2.6 | 8.7 | 0.00 | 0.00 | 0.00 | 80 | 993.8 |
| 20260505193908 | 83 | 0 | 2.6 | 10.4 | 0.00 | 0.00 | 0.00 | 81 | 993.9 |
| 20260505193408 | 83 | 0 | 1.7 | 10.4 | 0.00 | 0.00 | 0.00 | 80 | 994.0 |
| 20260505192905 | 83 | 0 | 2.6 | 5.2 | 0.00 | 0.00 | 0.00 | 81 | 994.1 |
| 20260505192404 | 83 | 155 | 3.5 | 10.4 | 0.00 | 0.00 | 0.00 | 81 | 994.1 |
| 20260505191904 | 83 | 0 | 3.5 | 12.2 | 0.00 | 0.00 | 0.00 | 80 | 994.0 |
| 20260505191406 | 83 | 0 | 3.5 | 12.2 | 0.00 | 0.00 | 0.00 | 82 | 994.0 |
| 20260505190904 | 83 | 0 | 2.6 | 8.7 | 0.00 | 0.00 | 0.00 | 82 | 994.1 |
| 20260505190404 | 83 | 0 | 2.6 | 13.0 | 0.00 | 0.00 | 0.00 | 82 | 994.2 |
| 20260505190122 | 83 | 0 | 2.6 | 13.0 | 0.00 | 0.00 | 0.00 | 82 | 994.2 |
| 20260505185404 | 83 | 0 | 1.7 | 7.8 | 0.00 | 0.00 | 0.00 | 83 | 994.4 |
| 20260505184904 | 82 | 0 | 2.6 | 8.7 | 0.00 | 0.00 | 0.00 | 83 | 994.4 |
| 20260505184400 | 82 | 0 | 2.6 | 8.7 | 0.00 | 0.00 | 0.00 | 84 | 994.4 |
| 20260505183902 | 82 | 0 | 1.7 | 8.7 | 0.00 | 0.00 | 0.00 | 84 | 994.4 |
| 20260505183401 | 81 | 0 | 1.7 | 8.7 | 0.00 | 0.00 | 0.00 | 85 | 994.5 |
| 20260505182900 | 81 | 0 | 2.6 | 13.0 | 0.00 | 0.00 | 0.00 | 85 | 994.5 |
| 20260505182401 | 81 | 0 | 3.5 | 13.0 | 0.00 | 0.00 | 0.00 | 84 | 994.5 |
| 20260505181900 | 81 | 0 | 2.6 | 8.7 | 0.00 | 0.00 | 0.00 | 85 | 994.6 |
| 20260505181841 | 81 | 0 | 2.6 | 10.4 | 0.00 | 0.00 | 0.00 | 85 | 994.6 |
| 20260505180900 | 81 | 0 | 2.6 | 10.4 | 0.00 | 0.00 | 0.00 | 85 | 994.7 |
| 20260505180621 | 80 | 0 | 2.6 | 7.8 | 0.00 | 0.00 | 0.00 | 85 | 994.7 |
| 20260505180342 | 80 | 0 | 2.6 | 7.8 | 0.00 | 0.00 | 0.00 | 85 | 994.8 |
| 20260505175356 | 80 | 0 | 3.5 | 11.3 | 0.00 | 0.00 | 0.00 | 85 | 994.7 |
| 20260505175118 | 80 | 0 | 2.6 | 12.2 | 0.00 | 0.00 | 0.00 | 85 | 994.7 |
| 20260505174356 | 80 | 0 | 1.7 | 12.2 | 0.00 | 0.00 | 0.00 | 86 | 994.8 |
| 20260505173856 | 80 | 0 | 2.6 | 8.7 | 0.00 | 0.00 | 0.00 | 85 | 994.7 |
| 20260505173356 | 80 | 0 | 2.6 | 13.0 | 0.00 | 0.00 | 0.00 | 86 | 994.8 |
| 20260505172856 | 80 | 0 | 1.7 | 13.0 | 0.00 | 0.00 | 0.00 | 86 | 994.9 |
| 20260505172356 | 80 | 0 | 1.7 | 9.6 | 0.00 | 0.00 | 0.00 | 86 | 994.8 |
| 20260505171857 | 80 | 0 | 2.6 | 9.6 | 0.00 | 0.00 | 0.00 | 86 | 994.9 |
| 20260505171613 | 80 | 0 | 2.6 | 8.7 | 0.00 | 0.00 | 0.00 | 86 | 994.9 |
| 20260505170852 | 80 | 0 | 2.6 | 8.7 | 0.00 | 0.00 | 0.00 | 86 | 995.0 |
| 20260505170352 | 80 | 0 | 2.6 | 8.7 | 0.00 | 0.00 | 0.00 | 86 | 994.9 |
| 20260505170116 | 79 | 0 | 3.5 | 10.4 | 0.00 | 0.00 | 0.00 | 87 | 995.0 |
| 20260505165352 | 79 | 0 | 2.6 | 10.4 | 0.00 | 0.00 | 0.00 | 87 | 995.0 |
| 20260505164854 | 79 | 0 | 2.6 | 7.0 | 0.00 | 0.00 | 0.00 | 87 | 995.0 |
| 20260505164614 | 79 | 0 | 2.6 | 10.4 | 0.00 | 0.00 | 0.00 | 87 | 995.0 |
| 20260505163855 | 78 | 0 | 2.6 | 10.4 | 0.00 | 0.00 | 0.00 | 88 | 995.1 |
| 20260505163354 | 78 | 182 | 1.7 | 7.8 | 0.00 | 0.00 | 0.00 | 88 | 995.1 |
| 20260505162852 | 78 | 216 | 1.7 | 7.8 | 0.00 | 0.00 | 0.00 | 88 | 995.2 |
| 20260505162351 | 78 | 148 | 1.7 | 6.1 | 0.00 | 0.00 | 0.00 | 88 | 995.3 |
| 20260505162118 | 78 | 234 | 2.6 | 10.4 | 0.00 | 0.00 | 0.00 | 88 | 995.3 |
| 20260505161615 | 78 | 217 | 2.6 | 10.4 | 0.00 | 0.00 | 0.00 | 88 | 995.2 |
| 20260505161120 | 78 | 169 | 1.7 | 6.1 | 0.00 | 0.00 | 0.00 | 88 | 995.1 |
| 20260505160352 | 78 | 148 | 2.6 | 6.1 | 0.00 | 0.00 | 0.00 | 88 | 995.0 |
| 20260505153349 | 77 | 0 | 1.7 | 8.7 | 0.00 | 0.00 | 0.00 | 88 | 995.0 |
| 20260505152851 | 77 | 0 | 2.6 | 8.7 | 0.00 | 0.00 | 0.00 | 88 | 994.8 |
| 20260505152350 | 77 | 0 | 2.6 | 8.7 | 0.00 | 0.00 | 0.00 | 88 | 994.8 |
| 20260505151850 | 77 | 0 | 2.6 | 8.7 | 0.00 | 0.00 | 0.00 | 88 | 994.8 |
| 20260505151350 | 77 | 0 | 2.6 | 9.6 | 0.00 | 0.00 | 0.00 | 88 | 994.8 |
| 20260505150851 | 77 | 0 | 1.7 | 9.6 | 0.00 | 0.00 | 0.00 | 88 | 994.8 |
| 20260505150351 | 77 | 0 | 2.6 | 7.8 | 0.00 | 0.00 | 0.00 | 89 | 994.7 |
| 20260505140337 | 75 | 0 | 3.5 | 10.4 | 0.00 | 0.00 | 0.00 | 91 | 994.6 |
| 20260505124546 | 73 | 0 | 1.7 | 5.2 | 0.00 | 0.00 | 0.00 | 92 | 994.2 |
| 20260505124040 | 73 | 0 | 1.7 | 5.2 | 0.00 | 0.00 | 0.00 | 92 | 993.9 |
| 20260505123319 | 72 | 0 | 1.7 | 4.3 | 0.00 | 0.00 | 0.00 | 92 | 993.9 |
| 20260505122817 | 72 | 0 | 0.9 | 4.3 | 0.00 | 0.00 | 0.00 | 92 | 994.0 |
| 20260505122316 | 72 | 0 | 0.9 | 4.3 | 0.00 | 0.00 | 0.00 | 92 | 994.2 |
| 20260505121815 | 72 | 0 | 1.7 | 4.3 | 0.00 | 0.00 | 0.00 | 92 | 994.2 |
| 20260505121313 | 72 | 0 | 0.9 | 5.2 | 0.00 | 0.00 | 0.00 | 92 | 994.4 |
| 20260505120814 | 72 | 0 | 0.9 | 5.2 | 0.00 | 0.00 | 0.00 | 92 | 994.2 |
| 20260505120311 | 72 | 0 | 1.7 | 5.2 | 0.00 | 0.00 | 0.00 | 92 | 994.2 |
| 20260505120034 | 72 | 0 | 1.7 | 5.2 | 0.00 | 0.00 | 0.00 | 92 | 994.1 |
| 20260505115312 | 72 | 0 | 0.9 | 5.2 | 0.00 | 0.00 | 0.00 | 92 | 994.1 |
| 20260505114813 | 72 | 0 | 1.7 | 4.3 | 0.00 | 0.00 | 0.00 | 92 | 994.0 |
| 20260505114312 | 72 | 0 | 1.7 | 4.3 | 0.00 | 0.00 | 0.00 | 92 | 993.8 |
| 20260505113812 | 72 | 0 | 1.7 | 7.0 | 0.00 | 0.00 | 0.00 | 92 | 993.7 |
| 20260505113311 | 72 | 0 | 1.7 | 7.0 | 0.00 | 0.00 | 0.00 | 92 | 993.8 |
| 20260505112812 | 72 | 0 | 1.7 | 7.0 | 0.00 | 0.00 | 0.00 | 92 | 994.1 |
| 20260505112531 | 72 | 0 | 1.7 | 7.0 | 0.00 | 0.00 | 0.00 | 92 | 994.1 |
| 20260505112125 | 72 | 0 | 1.7 | 5.2 | 0.00 | 0.00 | 0.00 | 91 | 994.0 |
| 20260505110807 | 72 | 0 | 1.7 | 7.8 | 0.00 | 0.00 | 0.00 | 91 | 994.0 |
| 20260505110527 | 72 | 0 | 1.7 | 5.2 | 0.00 | 0.00 | 0.00 | 91 | 993.9 |
| 20260505101800 | 71 | 0 | 0.9 | 3.5 | 0.00 | 0.00 | 0.00 | 91 | 994.1 |
| 20260505101527 | 71 | 0 | 0.9 | 2.6 | 0.00 | 0.00 | 0.00 | 91 | 994.0 |
| 20260505100800 | 71 | 0 | 0.0 | 2.6 | 0.00 | 0.00 | 0.00 | 91 | 994.0 |
| 20260505100256 | 71 | 0 | 0.0 | 2.6 | 0.00 | 0.00 | 0.00 | 91 | 994.0 |
| 20260505095756 | 71 | 0 | 0.9 | 3.5 | 0.00 | 0.00 | 0.00 | 91 | 994.0 |
| 20260505095255 | 71 | 0 | 0.9 | 4.3 | 0.00 | 0.00 | 0.00 | 91 | 994.1 |
| 20260505094755 | 71 | 0 | 0.9 | 4.3 | 0.00 | 0.00 | 0.00 | 91 | 994.2 |
| 20260505094256 | 71 | 0 | 1.7 | 3.5 | 0.00 | 0.00 | 0.00 | 90 | 994.1 |
| 20260505093755 | 71 | 0 | 0.9 | 3.5 | 0.00 | 0.00 | 0.00 | 90 | 994.0 |
| 20260505093255 | 71 | 0 | 0.9 | 3.5 | 0.00 | 0.00 | 0.00 | 91 | 994.1 |
| 20260505092755 | 71 | 0 | 0.9 | 3.5 | 0.00 | 0.00 | 0.00 | 90 | 994.1 |
| 20260505092255 | 71 | 0 | 0.9 | 3.5 | 0.00 | 0.00 | 0.00 | 90 | 994.2 |
| 20260505091755 | 71 | 0 | 1.7 | 4.3 | 0.00 | 0.00 | 0.00 | 90 | 994.2 |
| 20260505091255 | 71 | 0 | 0.9 | 4.3 | 0.00 | 0.00 | 0.00 | 90 | 994.4 |
| 20260505090755 | 71 | 0 | 0.0 | 3.5 | 0.00 | 0.00 | 0.00 | 90 | 994.4 |
| 20260505090255 | 71 | 0 | 0.9 | 2.6 | 0.00 | 0.00 | 0.00 | 90 | 994.4 |
| 20260505090246 | 71 | 0 | 0.9 | 1.7 | 0.00 | 0.00 | 0.00 | 90 | 994.4 |
| 20260505085526 | 71 | 0 | 0.9 | 4.3 | 0.00 | 0.00 | 0.00 | 89 | 994.4 |
| 20260505084753 | 71 | 0 | 0.9 | 4.3 | 0.00 | 0.00 | 0.00 | 89 | 994.4 |
| 20260505084247 | 71 | 0 | 1.7 | 4.3 | 0.00 | 0.00 | 0.00 | 89 | 994.5 |
| 20260505083747 | 71 | 0 | 0.9 | 4.3 | 0.00 | 0.00 | 0.00 | 89 | 994.4 |
| 20260505083247 | 72 | 0 | 0.9 | 4.3 | 0.00 | 0.00 | 0.00 | 89 | 994.4 |
| 20260505083016 | 72 | 0 | 1.7 | 5.2 | 0.00 | 0.00 | 0.00 | 89 | 994.5 |
| 20260505082247 | 72 | 0 | 1.7 | 7.8 | 0.00 | 0.00 | 0.00 | 89 | 994.6 |
| 20260505081746 | 72 | 0 | 1.7 | 7.8 | 0.00 | 0.00 | 0.00 | 89 | 994.7 |
| 20260505081247 | 72 | 0 | 1.7 | 5.2 | 0.00 | 0.00 | 0.00 | 89 | 994.7 |
| 20260505081009 | 72 | 0 | 1.7 | 7.8 | 0.00 | 0.00 | 0.00 | 88 | 994.6 |
| 20260505080247 | 72 | 0 | 1.7 | 7.8 | 0.00 | 0.00 | 0.00 | 88 | 994.7 |
| 20260505075743 | 72 | 0 | 1.7 | 5.2 | 0.00 | 0.00 | 0.00 | 88 | 994.9 |
| 20260505075501 | 72 | 0 | 1.7 | 5.2 | 0.00 | 0.00 | 0.00 | 88 | 994.9 |
| 20260505074743 | 72 | 0 | 1.7 | 5.2 | 0.00 | 0.00 | 0.00 | 88 | 994.9 |
| 20260505074244 | 72 | 0 | 1.7 | 4.3 | 0.00 | 0.00 | 0.00 | 88 | 994.9 |
| 20260505074001 | 72 | 0 | 1.7 | 5.2 | 0.00 | 0.00 | 0.00 | 88 | 994.9 |
| 20260505073501 | 72 | 0 | 1.7 | 5.2 | 0.00 | 0.00 | 0.00 | 88 | 995.0 |
| 20260505072744 | 72 | 0 | 0.9 | 7.0 | 0.00 | 0.00 | 0.00 | 88 | 995.0 |
| 20260505072243 | 72 | 0 | 0.9 | 7.0 | 0.00 | 0.00 | 0.00 | 87 | 995.0 |
| 20260505072002 | 72 | 0 | 0.9 | 3.5 | 0.00 | 0.00 | 0.00 | 87 | 995.1 |
| 20260505071506 | 72 | 0 | 0.9 | 4.3 | 0.00 | 0.00 | 0.00 | 87 | 995.2 |
| 20260505070739 | 72 | 0 | 1.7 | 7.8 | 0.00 | 0.00 | 0.00 | 87 | 995.3 |
| 20260505070240 | 72 | 0 | 0.9 | 7.8 | 0.00 | 0.00 | 0.00 | 87 | 995.2 |
| 20260505065739 | 72 | 0 | 0.9 | 4.3 | 0.00 | 0.00 | 0.00 | 87 | 995.2 |
| 20260505065238 | 72 | 0 | 0.9 | 7.0 | 0.00 | 0.00 | 0.00 | 87 | 995.3 |
| 20260505064739 | 72 | 0 | 1.7 | 7.0 | 0.00 | 0.00 | 0.00 | 87 | 995.4 |
| 20260505064500 | 72 | 0 | 0.9 | 4.3 | 0.00 | 0.00 | 0.00 | 86 | 995.5 |
| 20260505063742 | 72 | 0 | 0.0 | 2.6 | 0.00 | 0.00 | 0.00 | 86 | 995.4 |
| 20260505063236 | 72 | 0 | 0.9 | 2.6 | 0.00 | 0.00 | 0.00 | 86 | 995.4 |
| 20260505062733 | 72 | 0 | 0.9 | 5.2 | 0.00 | 0.00 | 0.00 | 86 | 995.5 |
| 20260505062231 | 72 | 0 | 0.9 | 5.2 | 0.00 | 0.00 | 0.00 | 86 | 995.7 |
| 20260505061732 | 72 | 0 | 1.7 | 5.2 | 0.00 | 0.00 | 0.00 | 86 | 995.6 |
| 20260505061231 | 72 | 0 | 1.7 | 5.2 | 0.00 | 0.00 | 0.00 | 86 | 995.6 |
| 20260505060731 | 72 | 0 | 1.7 | 4.3 | 0.00 | 0.00 | 0.00 | 85 | 995.7 |
| 20260505060230 | 72 | 0 | 1.7 | 4.3 | 0.00 | 0.00 | 0.00 | 85 | 995.7 |
| 20260505055950 | 72 | 0 | 0.9 | 3.5 | 0.00 | 0.00 | 0.00 | 85 | 995.7 |
| 20260505055229 | 72 | 0 | 0.9 | 4.3 | 0.00 | 0.00 | 0.00 | 85 | 995.6 |
| 20260505054730 | 72 | 0 | 0.9 | 4.3 | 0.00 | 0.00 | 0.00 | 85 | 995.6 |
| 20260505054220 | 72 | 0 | 0.9 | 5.2 | 0.00 | 0.00 | 0.00 | 85 | 995.6 |
| 20260505053711 | 72 | 0 | 1.7 | 5.2 | 0.00 | 0.00 | 0.00 | 84 | 995.8 |
| 20260505053211 | 72 | 0 | 0.9 | 5.2 | 0.00 | 0.00 | 0.00 | 84 | 995.9 |
| 20260505052710 | 72 | 0 | 0.9 | 4.3 | 0.00 | 0.00 | 0.00 | 84 | 996.0 |
| 20260505052431 | 72 | 0 | 0.9 | 4.3 | 0.00 | 0.00 | 0.00 | 84 | 996.0 |
| 20260505051707 | 72 | 0 | 0.9 | 3.5 | 0.00 | 0.00 | 0.00 | 84 | 996.1 |
| 20260505051205 | 72 | 0 | 1.7 | 4.3 | 0.00 | 0.00 | 0.00 | 83 | 996.1 |
| 20260505050705 | 72 | 0 | 1.7 | 5.2 | 0.00 | 0.00 | 0.00 | 83 | 996.2 |
| 20260505050701 | 73 | 0 | 1.7 | 5.2 | 0.00 | 0.00 | 0.00 | 83 | 996.2 |
| 20260505041656 | 73 | 0 | 1.7 | 7.8 | 0.00 | 0.00 | 0.00 | 81 | 996.1 |
| 20260505041156 | 73 | 0 | 1.7 | 7.8 | 0.00 | 0.00 | 0.00 | 81 | 996.1 |
| 20260505040656 | 74 | 0 | 1.7 | 7.0 | 0.00 | 0.00 | 0.00 | 81 | 996.0 |
| 20260505040152 | 74 | 0 | 1.7 | 5.2 | 0.00 | 0.00 | 0.00 | 81 | 996.0 |
| 20260505035916 | 74 | 0 | 1.7 | 7.8 | 0.00 | 0.00 | 0.00 | 81 | 996.2 |
| 20260505035152 | 74 | 0 | 2.6 | 7.8 | 0.00 | 0.00 | 0.00 | 81 | 996.3 |
| 20260505035139 | 74 | 0 | 2.6 | 7.0 | 0.00 | 0.00 | 0.00 | 81 | 996.2 |
| 20260505034151 | 74 | 0 | 2.6 | 8.7 | 0.00 | 0.00 | 0.00 | 80 | 996.1 |
| 20260505033648 | 74 | 0 | 3.5 | 8.7 | 0.00 | 0.00 | 0.00 | 80 | 996.1 |
| 20260505033150 | 74 | 0 | 2.6 | 8.7 | 0.00 | 0.00 | 0.00 | 80 | 996.2 |
| 20260505032910 | 74 | 0 | 1.7 | 7.8 | 0.00 | 0.00 | 0.00 | 80 | 996.3 |
| 20260505032149 | 74 | 0 | 2.6 | 7.8 | 0.00 | 0.00 | 0.00 | 79 | 996.4 |
| 20260505031645 | 74 | 0 | 2.6 | 10.4 | 0.00 | 0.00 | 0.00 | 79 | 996.4 |
| 20260505031145 | 74 | 0 | 2.6 | 10.4 | 0.00 | 0.00 | 0.00 | 79 | 996.4 |
| 20260505030736 | 75 | 0 | 1.7 | 9.6 | 0.00 | 0.00 | 0.00 | 79 | 996.3 |
| 20260505025645 | 75 | 0 | 2.6 | 8.7 | 0.00 | 0.00 | 0.00 | 78 | 996.3 |
| 20260505025147 | 75 | 0 | 3.5 | 11.3 | 0.00 | 0.00 | 0.00 | 78 | 996.2 |
| 20260505024648 | 75 | 0 | 3.5 | 11.3 | 0.00 | 0.00 | 0.00 | 78 | 996.0 |
| 20260505024146 | 75 | 0 | 2.6 | 10.4 | 0.00 | 0.00 | 0.00 | 78 | 996.0 |
| 20260505023649 | 75 | 0 | 3.5 | 11.3 | 0.00 | 0.00 | 0.00 | 78 | 995.9 |
| 20260505023144 | 76 | 0 | 3.5 | 11.3 | 0.00 | 0.00 | 0.00 | 77 | 995.9 |
| 20260505022902 | 76 | 0 | 1.7 | 5.2 | 0.00 | 0.00 | 0.00 | 77 | 995.9 |
| 20260505022144 | 76 | 0 | 2.6 | 7.0 | 0.00 | 0.00 | 0.00 | 78 | 996.1 |
| 20260505021905 | 76 | 0 | 2.6 | 7.0 | 0.00 | 0.00 | 0.00 | 77 | 996.0 |
| 20260505021141 | 76 | 0 | 1.7 | 7.0 | 0.00 | 0.00 | 0.00 | 77 | 996.0 |
| 20260505020903 | 76 | 0 | 2.6 | 8.7 | 0.00 | 0.00 | 0.00 | 78 | 996.0 |
| 20260505020141 | 76 | 0 | 2.6 | 9.6 | 0.00 | 0.00 | 0.00 | 77 | 996.0 |
| 20260505015642 | 75 | 0 | 1.7 | 9.6 | 0.00 | 0.00 | 0.00 | 78 | 995.9 |
| 20260505015141 | 75 | 0 | 1.7 | 5.2 | 0.00 | 0.00 | 0.00 | 78 | 995.9 |
| 20260505014637 | 75 | 0 | 1.7 | 7.8 | 0.00 | 0.00 | 0.00 | 77 | 995.8 |
| 20260505014137 | 75 | 0 | 1.7 | 7.8 | 0.00 | 0.00 | 0.00 | 77 | 995.7 |
| 20260505014127 | 76 | 0 | 1.7 | 4.3 | 0.00 | 0.00 | 0.00 | 77 | 995.8 |
| 20260505013355 | 76 | 0 | 1.7 | 4.3 | 0.00 | 0.00 | 0.00 | 76 | 995.7 |
| 20260505012637 | 76 | 0 | 1.7 | 4.3 | 0.00 | 0.00 | 0.00 | 76 | 995.6 |
| 20260505012137 | 76 | 0 | 1.7 | 4.3 | 0.00 | 0.00 | 0.00 | 76 | 995.6 |
| 20260505011638 | 76 | 0 | 1.7 | 5.2 | 0.00 | 0.00 | 0.00 | 76 | 995.5 |
| 20260505011137 | 76 | 0 | 1.7 | 5.2 | 0.00 | 0.00 | 0.00 | 75 | 995.5 |
| 20260505010638 | 77 | 0 | 1.7 | 7.0 | 0.00 | 0.00 | 0.00 | 75 | 995.6 |
| 20260505010133 | 77 | 0 | 1.7 | 7.0 | 0.00 | 0.00 | 0.00 | 74 | 995.7 |
| 20260505005633 | 77 | 0 | 1.7 | 4.3 | 0.00 | 0.00 | 0.00 | 74 | 995.6 |
| 20260505005133 | 77 | 0 | 2.6 | 7.0 | 0.00 | 0.00 | 0.00 | 74 | 995.6 |